Theta_e
297 299 299 300 301 303 304 306 309 309 310 313 321 323 324 323 322 322 324 317 320 323 324 325 326 326 327 327 329 330 330 331 333 332 334 335 334 334 334 334 333 332 332
294 295 295 295 296 299 301 304 305 305 306 308 312 321 320 319 317 313 313 312 309 312 316 320 322 326 327 328 327 327 328 329 331 332 332 333 333 333 333 333 333 333 333
293 293 293 292 293 295 297 302 302 303 303 305 309 315 311 305 304 304 303 303 303 304 306 311 313 315 318 322 327 326 326 328 330 330 331 332 332 333 333 332 332 332 331
292 291 291 290 291 292 293 296 300 299 299 302 309 307 305 304 303 303 302 301 301 300 301 305 305 307 311 314 318 321 323 327 327 328 330 330 331 332 332 332 332 332 331
290 290 289 289 290 289 290 292 295 296 295 297 306 306 305 304 303 301 299 300 299 299 298 299 299 300 304 309 312 315 317 318 323 325 326 328 329 331 331 332 331 331 331
289 289 289 289 289 288 288 290 292 294 293 294 301 302 300 301 302 298 295 296 296 298 297 295 295 295 299 303 306 309 311 313 313 315 318 322 326 329 330 330 331 331 331
288 288 288 288 288 287 286 288 290 290 291 292 297 299 303 297 297 296 296 294 293 295 295 294 293 293 293 297 299 304 306 308 309 311 312 317 321 326 328 330 331 332 331
287 287 287 286 287 286 286 286 287 289 290 291 289 293 290 293 291 294 293 292 292 294 293 292 290 291 291 291 293 298 300 304 307 309 311 314 317 322 326 328 330 331 332
286 286 286 286 286 286 285 285 286 286 286 288 289 288 287 284 286 291 291 291 292 292 290 289 288 288 290 290 291 292 296 299 304 307 309 312 314 318 323 326 328 330 331
285 286 286 285 285 285 285 285 285 286 286 285 288 289 289 287 283 283 289 290 289 290 288 287 287 287 288 289 289 290 293 299 301 304 307 309 311 315 319 323 327 328 329
284 284 285 285 285 285 285 284 284 284 284 284 284 285 286 286 286 284 281 282 288 290 289 289 288 287 287 286 287 288 291 294 299 302 305 307 308 312 316 320 324 327 328
283 284 284 284 284 284 284 284 284 283 283 283 283 282 282 282 282 282 281 282 284 287 288 289 286 287 288 287 287 287 289 293 298 300 304 308 309 309 313 318 321 325 326
282 282 283 283 283 284 284 284 283 283 283 282 282 282 283 284 285 284 284 283 283 285 286 287 287 287 287 287 287 286 287 291 297 298 301 310 310 309 311 315 318 322 325
282 282 283 283 283 283 283 284 283 283 282 282 282 283 284 285 286 285 284 282 281 283 283 282 286 285 286 285 285 286 286 289 294 296 297 301 308 310 310 312 314 317 322
283 282 282 282 282 282 282 282 282 281 282 281 282 282 283 285 286 287 287 285 282 278 278 282 281 285 285 285 285 284 285 286 291 294 295 295 298 301 305 307 309 314 317
282 282 281 281 281 281 281 281 281 281 281 281 281 281 282 284 285 287 286 286 285 282 279 282 282 283 283 284 284 283 284 284 287 292 293 294 294 295 296 298 301 304 305
281 281 281 281 281 280 280 280 280 280 280 280 280 280 281 284 285 286 286 285 285 284 280 282 283 283 282 282 281 282 283 282 284 289 292 292 293 293 293 294 294 296 298
281 281 281 280 280 280 280 279 279 279 279 279 279 280 281 283 284 285 286 284 284 284 282 278 281 283 282 283 283 281 281 282 282 286 288 291 291 291 291 292 292 292 293
281 281 281 280 280 280 280 279 279 279 279 279 279 279 280 282 282 283 284 284 283 283 282 281 280 282 282 283 282 283 280 280 282 284 285 287 289 290 290 290 290 290 290
281 281 281 281 280 280 280 280 279 279 279 279 280 280 280 282 282 283 283 282 281 281 281 280 280 279 279 281 281 279 279 280 278 281 282 283 285 286 288 289 288 288 289
281 281 281 281 281 281 280 279 279 279 279 278 279 280 279 280 283 284 283 282 281 279 279 278 277 278 277 277 277 278 277 279 279 278 279 279 280 282 284 286 287 287 288
280 281 281 281 281 282 283 282 279 278 278 278 278 279 279 279 280 282 282 283 283 279 277 278 277 275 275 276 277 278 276 275 274 279 277 276 278 277 281 283 286 287 288
280 280 280 281 281 282 283 282 280 278 277 278 278 278 278 278 278 277 278 278 279 281 279 276 275 275 275 275 275 277 277 275 273 275 277 274 277 275 277 280 284 285 285
279 279 280 280 281 282 283 282 280 278 278 277 278 278 278 278 278 276 276 274 274 276 278 277 276 276 277 277 276 277 277 277 277 276 275 273 276 274 276 276 281 282 283
279 279 280 280 280 281 283 282 280 278 277 277 278 279 279 278 279 278 274 273 273 273 276 278 278 278 278 278 276 276 274 275 273 273 273 274 274 274 275 274 275 278 279
279 280 280 280 280 281 283 282 280 279 277 277 277 278 280 279 280 277 274 273 272 272 272 272 272 273 273 273 274 272 272 272 271 273 272 272 272 272 273 274 273 273 273
Wind_Speed
9 9 9 9 9 9 10 10 10 11 12 12 10 10 9 6 6 4 4 8 9 12 15 19 17 17 19 21 24 18 19 18 19 19 18 18 19 20 22 22 22 22 22
9 10 10 10 10 10 10 8 10 10 10 10 11 10 8 8 12 16 14 14 31 31 30 27 28 25 25 26 25 23 20 20 21 20 20 19 20 20 22 22 22 23 23
11 11 9 10 11 11 13 10 11 10 10 10 13 13 16 17 14 16 14 12 14 24 27 27 27 26 27 26 26 25 21 20 19 22 22 21 22 23 23 23 24 23 24
13 10 9 10 11 10 10 10 10 10 10 10 8 10 11 13 14 14 12 11 10 10 16 28 28 28 28 27 27 23 24 27 23 22 23 23 24 24 25 25 25 25 25
13 10 9 10 12 10 11 10 10 11 11 9 8 9 9 10 11 11 14 12 14 12 11 20 25 25 28 28 26 25 25 27 22 20 14 21 24 25 25 25 26 26 27
12 10 9 11 11 10 11 11 12 11 11 9 5 7 8 10 9 11 13 12 14 13 13 14 12 13 25 27 27 27 24 25 26 27 23 19 18 25 26 27 26 28 28
12 12 9 11 11 12 12 14 10 13 13 13 5 5 4 8 10 11 11 12 14 13 15 13 10 9 11 24 25 26 26 27 26 26 25 22 19 19 25 27 28 28 29
13 11 11 11 12 10 14 15 15 8 9 13 7 4 6 4 9 9 11 13 17 12 13 15 14 14 13 11 19 30 30 32 30 27 25 23 21 22 20 27 29 29 30
12 12 12 11 12 11 10 12 12 13 8 9 15 6 4 5 9 5 12 14 16 12 12 16 17 16 16 13 17 22 33 35 31 28 26 25 22 23 23 22 28 30 30
12 12 11 12 12 10 12 10 10 10 9 10 4 9 10 7 4 6 7 12 10 11 13 11 13 14 17 14 21 29 34 35 32 27 28 25 24 25 24 23 24 28 29
11 11 11 11 11 8 11 12 11 12 10 9 8 6 5 6 9 5 7 10 9 7 8 10 11 11 14 15 14 22 36 35 37 31 24 27 27 26 24 24 24 24 27
7 10 10 10 9 9 10 9 10 13 10 10 8 9 7 5 6 6 5 9 10 10 6 9 12 12 12 13 20 33 34 35 37 35 28 23 27 28 25 25 25 25 24
6 8 9 10 8 8 9 9 10 11 11 10 9 7 6 5 5 6 7 7 6 7 6 6 10 11 11 12 16 30 33 36 36 37 43 22 11 21 20 19 19 25 23
5 6 7 8 9 8 8 9 8 8 10 9 12 9 7 5 5 6 7 7 5 6 7 10 7 11 11 11 18 31 21 34 39 42 45 45 31 6 6 10 14 22 23
5 6 7 8 9 9 9 9 8 9 9 10 10 9 7 6 6 7 8 8 7 7 10 6 7 11 11 11 18 14 19 34 39 40 42 45 47 42 38 38 37 11 16
5 6 7 7 9 9 9 9 9 9 10 8 8 10 9 8 8 8 7 8 8 7 6 7 7 10 12 10 17 15 17 27 36 39 42 45 45 46 46 45 45 42 41
5 5 6 6 8 9 9 8 10 10 11 11 11 11 12 12 8 8 7 7 8 7 7 5 6 6 9 12 13 15 15 15 16 38 41 44 44 45 44 42 46 45 43
5 5 4 6 6 8 8 9 9 8 11 11 11 11 11 9 11 10 8 9 9 8 4 5 5 6 5 10 9 13 12 12 14 31 37 40 43 42 43 43 45 45 43
5 5 5 6 5 7 8 9 8 8 9 10 10 10 9 12 11 9 9 8 7 6 6 5 7 6 4 9 9 8 10 13 12 27 30 35 39 41 42 42 42 41 40
6 5 5 6 5 5 7 7 8 8 8 9 9 10 9 12 11 10 9 9 7 6 7 6 6 6 4 7 7 8 8 10 12 13 21 27 31 36 38 36 38 35 35
5 5 5 5 4 5 6 7 7 8 8 9 9 9 8 8 15 15 8 10 8 7 7 8 8 6 7 6 9 7 7 5 9 11 11 13 14 14 18 26 25 32 31
5 5 4 4 4 4 12 12 8 7 8 8 8 8 7 7 10 14 16 19 15 9 10 7 6 6 7 7 7 8 8 7 6 9 10 12 11 13 14 14 30 29 28
6 5 4 4 5 5 11 12 10 6 7 7 7 7 7 6 6 7 12 14 16 18 15 6 7 8 7 9 8 8 8 7 6 8 6 9 10 12 11 14 28 28 26
7 6 5 4 5 4 10 12 10 6 7 8 7 8 7 7 8 7 8 10 9 10 9 7 8 8 9 10 7 6 6 3 2 8 9 5 7 10 9 10 27 27 26
6 5 5 5 5 4 8 9 6 4 5 7 6 8 7 7 10 10 8 9 10 9 9 14 16 17 18 22 17 4 9 5 5 6 11 5 5 4 6 9 11 24 26
8 6 6 5 4 5 7 8 6 3 5 4 5 7 10 7 11 11 7 7 8 6 7 7 9 11 14 15 21 13 7 7 4 4 9 6 6 5 3 4 9 10 10
Wind_Direction
359 357 1 359 358 353 356 354 355 358 1 359 6 22 24 40 52 35 8 2 336 340 331 320 308 300 290 284 282 282 273 264 261 255 240 230 223 217 210 209 200 200 200
7 10 5 4 4 357 356 356 358 3 4 1 10 24 44 41 29 32 27 27 33 29 21 12 2 344 302 287 271 272 275 278 267 253 246 238 230 219 215 214 210 206 205
12 14 12 8 2 2 357 1 8 12 14 13 12 33 53 61 47 45 44 33 26 26 18 12 9 7 351 344 338 274 274 277 272 263 254 241 235 230 221 218 216 213 211
18 21 20 12 4 12 11 6 7 12 12 14 35 53 52 64 58 50 48 43 31 20 12 10 7 5 0 359 348 345 339 302 275 276 261 250 239 232 229 227 219 215 213
22 26 25 18 12 20 22 13 16 17 14 4 48 62 60 61 58 50 41 37 30 23 14 7 5 3 2 355 352 348 346 340 324 313 311 272 249 239 233 229 225 216 213
24 26 26 25 23 28 25 17 19 22 23 359 4 66 63 56 58 46 38 27 14 22 19 7 358 354 356 356 353 350 349 339 335 322 318 300 305 248 239 230 227 224 216
25 28 31 27 26 34 28 19 10 18 21 7 7 13 56 67 41 46 39 29 19 12 14 6 3 354 351 357 350 347 348 336 331 321 314 309 289 286 245 238 227 222 220
28 32 34 36 31 33 36 29 22 21 23 22 15 8 9 343 15 26 32 22 16 11 17 15 8 2 360 353 347 351 347 339 331 321 311 299 289 279 269 244 234 225 219
34 32 37 43 39 36 38 37 28 33 30 25 34 28 21 5 332 357 26 21 5 11 14 11 7 4 2 356 353 349 343 334 329 320 309 299 285 274 267 259 242 232 225
34 36 37 45 44 41 46 39 34 37 40 39 22 37 71 58 2 330 5 17 356 14 17 13 6 3 2 357 349 343 339 341 338 325 307 291 283 270 260 259 257 240 233
34 35 41 46 47 43 50 48 41 39 36 46 41 20 36 46 17 5 344 347 352 29 28 21 14 6 0 359 348 341 342 334 347 337 315 282 267 260 257 248 251 254 239
35 33 44 47 47 45 45 50 46 49 42 49 50 47 46 35 6 9 350 348 356 9 17 21 13 5 3 1 356 350 349 346 352 345 349 290 243 238 235 243 239 244 243
40 29 45 50 46 44 50 53 51 50 44 48 53 54 49 41 16 358 1 1 2 6 12 15 18 5 359 356 359 357 355 351 1 4 17 359 251 235 229 243 251 249 246
55 34 48 56 54 51 48 53 55 51 50 50 54 49 44 35 19 14 7 16 357 16 12 9 354 5 357 356 354 356 352 355 8 16 30 30 43 49 262 264 275 265 255
70 47 45 55 59 57 52 50 56 49 50 49 48 36 25 21 24 26 29 32 27 10 26 1 357 358 357 353 355 352 359 0 7 20 31 40 42 43 49 58 46 22 258
66 61 57 57 63 60 51 52 59 47 56 48 46 43 38 31 31 35 41 40 38 27 36 15 12 357 2 4 356 357 360 9 9 19 32 39 43 45 45 50 55 50 59
89 65 58 66 72 67 55 54 58 51 56 51 44 41 46 43 41 41 44 39 37 32 43 22 17 357 15 6 358 359 1 7 11 18 30 40 42 45 44 45 54 53 50
99 90 74 77 74 76 65 61 60 51 56 51 45 43 42 46 43 35 39 42 30 28 39 29 354 353 2 359 354 14 7 8 16 22 23 36 43 45 46 44 48 50 49
111 100 93 89 83 80 76 66 60 54 56 52 49 43 35 47 49 38 36 39 42 35 24 30 12 3 343 359 352 4 20 13 17 24 24 29 37 43 47 47 49 47 48
124 115 100 96 89 84 77 72 64 56 57 53 53 48 36 47 48 43 42 37 30 40 23 23 24 14 355 350 4 357 6 27 19 21 27 33 36 39 42 48 48 47 51
129 126 116 101 95 89 82 74 67 59 55 56 52 51 41 23 57 56 50 41 34 36 27 25 19 15 9 356 2 352 2 0 38 16 24 27 30 33 37 40 47 56 51
140 134 124 115 101 95 92 82 73 68 57 54 54 46 50 43 53 63 57 55 52 45 40 30 22 15 352 345 345 359 6 14 10 18 15 30 26 35 32 34 44 48 60
145 144 140 131 120 109 105 94 81 73 69 55 53 48 54 48 55 64 64 60 50 53 53 28 32 20 356 339 319 346 15 30 30 356 4 40 26 40 29 34 41 45 46
153 152 153 156 142 132 123 109 96 84 72 59 48 50 50 48 58 62 70 66 54 47 45 47 38 27 21 3 359 342 347 6 43 32 6 49 13 40 32 35 38 40 42
155 157 157 171 151 149 148 128 118 105 81 66 48 51 46 57 63 67 76 73 64 47 38 50 53 48 37 35 33 33 26 23 26 18 17 357 11 8 27 30 27 34 37
163 155 157 175 165 163 164 146 138 139 111 94 58 41 56 58 67 67 69 75 72 34 34 34 42 39 37 32 34 40 27 43 27 16 20 5 356 359 44 34 32 28 24